Regional Weather Roundup
Issued by NWS

Home | Current Version | Previous Version | Graphics & Text | Print | Product List | Glossary On
Versions: 1 2 3 4 5 6 7 8 9 10 11 12 13 14 15 16 17 18 19 20 21 22 23 24 25 26 27 28 29 30 31 32 33 34 35 36 37 38 39 40 41 42 43 44 45 46 47 48 49 50
000
ASUS43 KDTX 230201
RWRMI
MICHIGAN HOURLY REGIONAL WEATHER ROUNDUP
NATIONAL WEATHER SERVICE DETROIT/PONTIAC MI
1000 PM EDT SAT APR 22 2017

NOTE: "FAIR" INDICATES FEW OR NO CLOUDS BELOW 12,000 FEET WITH NO
SIGNIFICANT WEATHER AND/OR OBSTRUCTION TO VISIBILITY.

MIZ047>049-052>055-059>063-066>070-074>076-081>083-230300-
SOUTHEAST LOWER MICHIGAN

CITY           SKY/WX    TMP DP  RH WIND       PRES   REMARKS
ADRIAN         CLEAR     49  34  56 CALM      30.14R
ALMA           CLEAR     50  34  53 S12       30.13R
ANN ARBOR      CLEAR     45  38  76 SE6       30.12R
BAD AXE        CLEAR     39  33  80 CALM      30.14R
CARO           CLEAR     43  34  70 CALM      30.13R
DETROIT CITY   CLEAR     47  30  51 E6        30.14R
DETROIT        PTCLDY    50  32  50 SE3       30.15R
FLINT          CLEAR     43  32  65 CALM      30.14R
GROSSE ILE     CLEAR     48  33  55 CALM      30.13R
HILLSDALE      CLEAR     52  32  46 CALM      30.12R
HOWELL         CLEAR     48  29  47 CALM      30.13S

CITY           SKY/WX    TMP DP  RH WIND       PRES   REMARKS
JACKSON        CLEAR     50  34  54 N3        30.13R
LAMBERTVILLE   CLOUDY    45  36  71 CALM      30.13R
LANSING        CLEAR     49  28  44 CALM      30.14R
LAPEER         FAIR      44  33  64 CALM      30.13R
MASON          CLEAR     48  35  61 CALM      30.14R
MONROE         CLEAR     48  37  64 CALM      30.12S
MT. CLEMENS    PTCLDY    43  34  71 E7        30.12R
PONTIAC        PTCLDY    48  31  51 CALM      30.13R
PORT HOPE        N/A     41  33  73 CALM      30.12R
PORT HURON     CLEAR     37  32  81 CALM      30.14S
TRI CITIES     CLEAR     52  36  54 S5        30.13R
MIDLAND        FAIR      47  36  65 CALM      30.12R
TROY           CLEAR     51  29  42 CALM      30.15R
SAGINAW HB     CLEAR     50  36  57 SE3       30.12S
$$
MIZ043>046-050>051-056>058-064>065-071>073-077>080-230300-
SOUTHWEST LOWER MICHIGAN

CITY           SKY/WX    TMP DP  RH WIND       PRES   REMARKS
BATTLE CREEK   CLEAR     51  31  46 CALM      30.14R
BENTON HARBOR  CLEAR     44  28  53 CALM      30.15R
BIG RAPIDS     CLEAR     51  21  31 NW5       30.13R
COLDWATER      CLEAR     49  31  50 N3        30.13R
FREMONT        FAIR      46  26  45 NW5       30.15R
HOLLAND        CLEAR     47  30  51 NW3       30.15R
GRAND RAPIDS   CLEAR     53  32  44 W7        30.13S
IONIA          FAIR      51  36  57 CALM      30.12S
KALAMAZOO      CLEAR     47  29  49 NW8       30.14R
LUDINGTON      CLEAR     43  26  51 CALM      30.14R
MARSHALL       CLEAR     49  27  42 CALM      30.13R
MOUNT PLEASANT CLEAR     54  33  45 S3        30.11S
MUSKEGON       PTCLDY    49  29  46 N7        30.15R
SOUTH HAVEN    CLEAR     45  28  52 CALM      30.16R
$$
MIZ016>042-230300-
NORTHERN LOWER MICHIGAN

CITY           SKY/WX    TMP DP  RH WIND       PRES   REMARKS
ALPENA         CLEAR     42  30  62 S3        30.12S
BEAVER ISLAND  CLEAR     49  19  30 SW8       30.08F
BELLAIRE       CLEAR     42  32  69 CALM      30.12R
CADILLAC       CLEAR     44  26  49 CALM      30.13R
CHARLEVOIX     CLEAR     49  24  36 SW5       30.13S
FRANKFORT      CLEAR     40  26  57 CALM      30.12S
GAYLORD        CLEAR     45  24  43 SW7       30.10F
GRAYLING       CLEAR     40  28  60 CALM      30.12F
HARBOR SPRINGS CLEAR     42  30  62 CALM      30.09S
HOUGHTON LAKE  CLEAR     49  26  41 NW5       30.12R
MANISTEE       CLEAR     40  31  70 CALM      30.13S
OSCODA         CLEAR     40  28  62 SW3       30.13R
PELLSTON       CLEAR     43  25  49 CALM      30.09S
ROGERS CITY    CLEAR     49  29  46 S8        30.11S
TRAVERSE CITY  CLEAR     45  31  58 CALM      30.10S
$$
MIZ007>008-015-230300-
EASTERN UPPER MICHIGAN

CITY           SKY/WX    TMP DP  RH WIND       PRES   REMARKS
KINROSS        CLEAR     45  25  45 SW5       30.08S
MACKINAC ISLAN CLEAR     41  28  60 SW7       30.09R
NEWBERRY       CLEAR     44  28  52 SW8       30.06F
S. S. MARIE    PTCLDY    50  29  44 SW7       30.06S
MUNISING         N/A     52  27  38 S6        30.03F
$$
MIZ004>006-011>014-085-230300-
CENTRAL UPPER MICHIGAN

CITY           SKY/WX    TMP DP  RH WIND       PRES   REMARKS
MANISTIQUE     CLEAR     41  33  74 S8        30.06F
ESCANABA       CLEAR     48  35  60 S10       30.05F
MENOMINEE      CLEAR     55  34  45 SW13      30.08R
SAWYER-GWINN   CLEAR     54  28  37 SE7       30.03F
$$
MIZ001>003-009>011-084-230300-
WESTERN UPPER MICHIGAN

CITY           SKY/WX    TMP DP  RH WIND       PRES   REMARKS
IRON MOUNTAIN  CLEAR     58  25  28 SW7       30.03S
HOUGHTON       PTCLDY    48  39  71 N10       30.02R
COPPER HARBOR    N/A     43  39  86 N6        30.03F
IRONWOOD       PTCLDY    56  32  40 W3        30.03F
$$

ABBREVIATIONS USED IN REMARKS
   TC - TEMPERATURE IN CELSIUS
  WCI - WIND CHILL INDEX
   HX - HEAT INDEX
  VSB - VISIBILITY




USA.gov is the U.S. government's official web portal to all federal, state and local government web resources and services.